"read_dt","SO2 (ppb)","flags","PMT voltage (V)","lamp voltage (V)","lamp intensity (Hz)","internal temp (C)","react chamber temp (C)","sample flow (l/min)","pres (mmHg)","SO2 bkg (ppb)","SO2 coefficient"
2014-12-10 00:00:00,2186E-3,5C000000,-0724,0833,12247,027.7,045.4,0.455,751.0,01.17,0.508
2014-12-10 00:01:00,2387E-3,5C000000,-0724,0834,12233,027.7,045.4,0.455,750.9,01.17,0.508
2014-12-10 00:02:00,2280E-3,5C000000,-0724,0834,12156,027.7,045.4,0.455,750.9,01.17,0.508
2014-12-10 00:03:00,2191E-3,5C000000,-0724,0834,12178,027.7,045.4,0.455,750.9,01.17,0.508
2014-12-10 00:04:00,2305E-3,5C000000,-0724,0834,12287,027.7,045.4,0.455,750.9,01.17,0.508
2014-12-10 00:05:00,2169E-3,5C000000,-0724,0834,12177,027.7,045.4,0.455,750.9,01.17,0.508
2014-12-10 00:06:00,2160E-3,5C000000,-0724,0834,12295,027.7,045.4,0.455,750.9,01.17,0.508
2014-12-10 00:07:00,2239E-3,5C000000,-0724,0834,12121,027.7,045.4,0.455,750.9,01.17,0.508
2014-12-10 00:08:00,2199E-3,5C000000,-0724,0833,12122,027.7,045.5,0.455,750.9,01.17,0.508
2014-12-10 00:09:00,2366E-3,5C000000,-0724,0834,12216,027.7,045.4,0.455,750.9,01.17,0.508
2014-12-10 00:10:00,2181E-3,5C000000,-0724,0833,12142,027.7,045.4,0.455,750.9,01.17,0.508
2014-12-10 00:11:00,2260E-3,5C000000,-0724,0834,12288,027.7,045.4,0.455,750.9,01.17,0.508
2014-12-10 00:12:00,2306E-3,5C000000,-0724,0834,11992,027.7,045.4,0.455,750.9,01.17,0.508
2014-12-10 00:13:00,2176E-3,5C000000,-0724,0834,11909,027.7,045.4,0.455,750.9,01.17,0.508
2014-12-10 00:14:00,2176E-3,5C000000,-0724,0834,12292,027.7,045.4,0.455,750.9,01.17,0.508
2014-12-10 00:15:00,2250E-3,5C000000,-0724,0833,11992,027.7,045.4,0.455,750.9,01.17,0.508
2014-12-10 00:16:00,2244E-3,5C000000,-0724,0834,12147,027.7,045.4,0.455,750.9,01.17,0.508
2014-12-10 00:17:00,2310E-3,5C000000,-0724,0834,12184,027.7,045.4,0.455,750.9,01.17,0.508
2014-12-10 00:18:00,2444E-3,5C000000,-0724,0834,12151,027.7,045.4,0.455,750.9,01.17,0.508
2014-12-10 00:19:00,2151E-3,5C000000,-0724,0834,12187,027.7,045.4,0.455,750.9,01.17,0.508
2014-12-10 00:20:00,2356E-3,5C000000,-0724,0833,12256,027.7,045.4,0.455,750.9,01.17,0.508
2014-12-10 00:21:00,2374E-3,5C000000,-0724,0833,12150,027.7,045.4,0.455,750.9,01.17,0.508
2014-12-10 00:22:00,2354E-3,5C000000,-0724,0834,11962,027.7,045.4,0.455,750.9,01.17,0.508
2014-12-10 00:23:00,2325E-3,5C000000,-0724,0834,12162,027.7,045.4,0.455,750.9,01.17,0.508
2014-12-10 00:24:00,2478E-3,5C000000,-0724,0834,12294,027.7,045.4,0.455,750.9,01.17,0.508
2014-12-10 00:25:00,2453E-3,5C000000,-0724,0833,12064,027.7,045.4,0.455,750.9,01.17,0.508
2014-12-10 00:26:00,2519E-3,5C000000,-0724,0833,12229,027.7,045.4,0.455,750.8,01.17,0.508
2014-12-10 00:27:00,2379E-3,5C000000,-0724,0833,12067,027.7,045.4,0.455,750.8,01.17,0.508
2014-12-10 00:28:00,2349E-3,5C000000,-0724,0834,12050,027.7,045.4,0.455,750.8,01.17,0.508
2014-12-10 00:29:00,2401E-3,5C000000,-0724,0834,12020,027.7,045.4,0.455,750.8,01.17,0.508
2014-12-10 00:30:00,2514E-3,5C000000,-0724,0835,12242,027.7,045.4,0.455,750.8,01.17,0.508
2014-12-10 00:31:00,2423E-3,5C000000,-0724,0834,11825,027.7,045.4,0.455,750.8,01.17,0.508
2014-12-10 00:32:00,2374E-3,5C000000,-0724,0835,12324,027.7,045.4,0.455,750.8,01.17,0.508
2014-12-10 00:33:00,2455E-3,5C000000,-0724,0834,12180,027.7,045.4,0.455,750.8,01.17,0.508
2014-12-10 00:34:00,2494E-3,5C000000,-0724,0834,12189,027.7,045.4,0.455,750.8,01.17,0.508
2014-12-10 00:35:00,2557E-3,5C000000,-0724,0834,12206,027.7,045.4,0.455,750.8,01.17,0.508
2014-12-10 00:36:00,2507E-3,5C000000,-0724,0834,12313,027.7,045.4,0.455,750.8,01.17,0.508
2014-12-10 00:37:00,2541E-3,5C000000,-0724,0835,12186,027.7,045.4,0.455,750.8,01.17,0.508
2014-12-10 00:38:00,2458E-3,5C000000,-0724,0834,12041,027.7,045.4,0.455,750.7,01.17,0.508
2014-12-10 00:39:00,2331E-3,5C000000,-0724,0834,12118,027.7,045.4,0.455,750.8,01.17,0.508
2014-12-10 00:40:00,2362E-3,5C000000,-0724,0835,12300,027.7,045.4,0.455,750.7,01.17,0.508
2014-12-10 00:41:00,2436E-3,5C000000,-0724,0834,12092,027.7,045.4,0.455,750.7,01.17,0.508
2014-12-10 00:42:00,2477E-3,5C000000,-0724,0834,12106,027.7,045.4,0.455,750.7,01.17,0.508
2014-12-10 00:43:00,2459E-3,5C000000,-0724,0834,12020,027.7,045.4,0.455,750.7,01.17,0.508
2014-12-10 00:44:00,2491E-3,5C000000,-0724,0834,12198,027.7,045.4,0.455,750.7,01.17,0.508
2014-12-10 00:45:00,2503E-3,5C000000,-0724,0834,12125,027.7,045.4,0.455,750.7,01.17,0.508
2014-12-10 00:46:00,2324E-3,5C000000,-0724,0834,12059,027.7,045.4,0.455,750.7,01.17,0.508
2014-12-10 00:47:00,2399E-3,5C000000,-0724,0835,12149,027.6,045.4,0.455,750.7,01.17,0.508
2014-12-10 00:48:00,2265E-3,5C000000,-0724,0834,12121,027.7,045.4,0.455,750.7,01.17,0.508
2014-12-10 00:49:00,2357E-3,5C000000,-0724,0835,12253,027.7,045.4,0.456,750.7,01.17,0.508
2014-12-10 00:50:00,2405E-3,5C000000,-0724,0834,12092,027.7,045.4,0.455,750.7,01.17,0.508
2014-12-10 00:51:00,2465E-3,5C000000,-0724,0835,12311,027.7,045.4,0.455,750.7,01.17,0.508
2014-12-10 00:52:00,2352E-3,5C000000,-0724,0835,12279,027.7,045.4,0.455,750.7,01.17,0.508
2014-12-10 00:53:00,2508E-3,5C000000,-0724,0835,12226,027.7,045.4,0.455,750.7,01.17,0.508
2014-12-10 00:54:00,2392E-3,5C000000,-0724,0834,12324,027.7,045.4,0.455,750.7,01.17,0.508
2014-12-10 00:55:00,2315E-3,5C000000,-0724,0834,12203,027.7,045.4,0.455,750.7,01.17,0.508
2014-12-10 00:56:00,2148E-3,5C000000,-0724,0835,12220,027.7,045.4,0.455,750.7,01.17,0.508
2014-12-10 00:57:00,2344E-3,5C000000,-0724,0835,12319,027.6,045.4,0.455,750.7,01.17,0.508
2014-12-10 00:58:00,2167E-3,5C000000,-0724,0835,12177,027.6,045.4,0.455,750.7,01.17,0.508
2014-12-10 00:59:00,2243E-3,5C000000,-0724,0834,12235,027.6,045.4,0.455,750.7,01.17,0.508
2014-12-10 01:00:00,2446E-3,5C000000,-0724,0836,12336,027.7,045.4,0.455,750.7,01.17,0.508
2014-12-10 01:01:00,2364E-3,5C000000,-0724,0836,12132,027.6,045.4,0.455,750.7,01.17,0.508
2014-12-10 01:02:00,2422E-3,5C000000,-0724,0835,12149,027.6,045.4,0.455,750.7,01.17,0.508
2014-12-10 01:03:00,2346E-3,5C000000,-0724,0835,11928,027.6,045.4,0.455,750.7,01.17,0.508
2014-12-10 01:04:00,2390E-3,5C000000,-0724,0834,11956,027.6,045.4,0.455,750.7,01.17,0.508
2014-12-10 01:05:00,2321E-3,5C000000,-0724,0835,12037,027.6,045.4,0.455,750.7,01.17,0.508
2014-12-10 01:06:00,2472E-3,5C000000,-0724,0835,12223,027.6,045.4,0.455,750.7,01.17,0.508
2014-12-10 01:07:00,2460E-3,5C000000,-0724,0835,12223,027.6,045.4,0.455,750.7,01.17,0.508
2014-12-10 01:08:00,2338E-3,5C000000,-0724,0835,12302,027.7,045.4,0.455,750.7,01.17,0.508
2014-12-10 01:09:00,2346E-3,5C000000,-0724,0835,12136,027.6,045.4,0.455,750.7,01.17,0.508
2014-12-10 01:10:00,2338E-3,5C000000,-0724,0834,12059,027.6,045.4,0.455,750.7,01.17,0.508
2014-12-10 01:11:00,2311E-3,5C000000,-0724,0835,12145,027.6,045.4,0.455,750.7,01.17,0.508
2014-12-10 01:12:00,2472E-3,5C000000,-0724,0835,12079,027.6,045.4,0.455,750.7,01.17,0.508
2014-12-10 01:13:00,2365E-3,5C000000,-0724,0835,12102,027.6,045.4,0.455,750.6,01.17,0.508
2014-12-10 01:14:00,2423E-3,5C000000,-0724,0835,12139,027.6,045.4,0.455,750.6,01.17,0.508
2014-12-10 01:15:00,2237E-3,5C000000,-0724,0835,12013,027.6,045.4,0.455,750.6,01.17,0.508
2014-12-10 01:16:00,2388E-3,5C000000,-0724,0835,12093,027.6,045.4,0.455,750.7,01.17,0.508
2014-12-10 01:17:00,2364E-3,5C000000,-0724,0836,12087,027.6,045.4,0.455,750.7,01.17,0.508
2014-12-10 01:18:00,2234E-3,5C000000,-0724,0835,12107,027.6,045.4,0.455,750.7,01.17,0.508
2014-12-10 01:19:00,2278E-3,5C000000,-0724,0834,12178,027.6,045.4,0.455,750.7,01.17,0.508
2014-12-10 01:20:00,2362E-3,5C000000,-0724,0835,12157,027.6,045.4,0.455,750.7,01.17,0.508
2014-12-10 01:21:00,2363E-3,5C000000,-0724,0835,12168,027.6,045.4,0.455,750.7,01.17,0.508
2014-12-10 01:22:00,2295E-3,5C000000,-0724,0836,12099,027.6,045.4,0.455,750.6,01.17,0.508
2014-12-10 01:23:00,2234E-3,5C000000,-0724,0835,12200,027.6,045.4,0.455,750.6,01.17,0.508
2014-12-10 01:24:00,2327E-3,5C000000,-0724,0834,12185,027.6,045.4,0.455,750.6,01.17,0.508
2014-12-10 01:25:00,2316E-3,5C000000,-0724,0834,12047,027.6,045.4,0.455,750.6,01.17,0.508
2014-12-10 01:26:00,2301E-3,5C000000,-0724,0835,12114,027.6,045.4,0.455,750.6,01.17,0.508
2014-12-10 01:27:00,2363E-3,5C000000,-0724,0834,12290,027.6,045.4,0.455,750.6,01.17,0.508
2014-12-10 01:28:00,2239E-3,5C000000,-0724,0833,12156,027.6,045.4,0.455,750.5,01.17,0.508
2014-12-10 01:29:00,2372E-3,5C000000,-0724,0835,12089,027.6,045.4,0.455,750.5,01.17,0.508
2014-12-10 01:30:00,2298E-3,5C000000,-0724,0834,12191,027.6,045.4,0.455,750.5,01.17,0.508
2014-12-10 01:31:00,2276E-3,5C000000,-0724,0835,12140,027.6,045.4,0.455,750.5,01.17,0.508
2014-12-10 01:32:00,2306E-3,5C000000,-0724,0834,12146,027.6,045.4,0.455,750.5,01.17,0.508
2014-12-10 01:33:00,2310E-3,5C000000,-0724,0834,12174,027.6,045.4,0.455,750.5,01.17,0.508
2014-12-10 01:34:00,2250E-3,5C000000,-0724,0835,12227,027.6,045.4,0.455,750.5,01.17,0.508
2014-12-10 01:35:00,2318E-3,5C000000,-0724,0835,12072,027.6,045.4,0.455,750.5,01.17,0.508
2014-12-10 01:36:00,2310E-3,5C000000,-0724,0834,12279,027.6,045.4,0.455,750.5,01.17,0.508
2014-12-10 01:37:00,2220E-3,5C000000,-0724,0834,12132,027.6,045.4,0.455,750.5,01.17,0.508
2014-12-10 01:38:00,2293E-3,5C000000,-0724,0834,12183,027.6,045.4,0.455,750.5,01.17,0.508
2014-12-10 01:39:00,2418E-3,5C000000,-0724,0835,12186,027.6,045.4,0.455,750.5,01.17,0.508
2014-12-10 01:40:00,2373E-3,5C000000,-0724,0834,12075,027.6,045.4,0.455,750.5,01.17,0.508
2014-12-10 01:41:00,2311E-3,5C000000,-0724,0834,12144,027.6,045.4,0.455,750.5,01.17,0.508
2014-12-10 01:42:00,2366E-3,5C000000,-0724,0835,12102,027.6,045.4,0.455,750.5,01.17,0.508
2014-12-10 01:43:00,2425E-3,5C000000,-0724,0834,12174,027.6,045.4,0.455,750.5,01.17,0.508
2014-12-10 01:44:00,2320E-3,5C000000,-0724,0834,12088,027.6,045.4,0.455,750.5,01.17,0.508
2014-12-10 01:45:00,2292E-3,5C000000,-0724,0835,12008,027.6,045.4,0.455,750.5,01.17,0.508
2014-12-10 01:46:00,2204E-3,5C000000,-0724,0834,12121,027.6,045.4,0.455,750.5,01.17,0.508
2014-12-10 01:47:00,2363E-3,5C000000,-0724,0835,12120,027.6,045.4,0.455,750.5,01.17,0.508
2014-12-10 01:48:00,2269E-3,5C000000,-0724,0835,12423,027.6,045.4,0.455,750.5,01.17,0.508
2014-12-10 01:49:00,2311E-3,5C000000,-0724,0834,12164,027.6,045.4,0.455,750.5,01.17,0.508
2014-12-10 01:50:00,2441E-3,5C000000,-0724,0834,12083,027.6,045.4,0.455,750.5,01.17,0.508
2014-12-10 01:51:00,2348E-3,5C000000,-0724,0834,12005,027.6,045.4,0.455,750.5,01.17,0.508
2014-12-10 01:52:00,2262E-3,5C000000,-0724,0835,12282,027.6,045.4,0.455,750.5,01.17,0.508
2014-12-10 01:53:00,2221E-3,5C000000,-0724,0834,12189,027.6,045.4,0.455,750.5,01.17,0.508
2014-12-10 01:54:00,2290E-3,5C000000,-0724,0835,12346,027.6,045.4,0.455,750.5,01.17,0.508
2014-12-10 01:55:00,2156E-3,5C000000,-0724,0833,12203,027.6,045.4,0.455,750.5,01.17,0.508
2014-12-10 01:56:00,2321E-3,5C000000,-0724,0835,12185,027.6,045.4,0.455,750.5,01.17,0.508
2014-12-10 01:57:00,2279E-3,5C000000,-0724,0834,12212,027.6,045.4,0.455,750.5,01.17,0.508
2014-12-10 01:58:00,2247E-3,5C000000,-0724,0833,12154,027.6,045.4,0.455,750.5,01.17,0.508
2014-12-10 01:59:00,2354E-3,5C000000,-0724,0834,12149,027.6,045.4,0.455,750.5,01.17,0.508
2014-12-10 02:00:00,2311E-3,5C000000,-0724,0833,12194,027.6,045.4,0.455,750.5,01.17,0.508
2014-12-10 02:01:00,2123E-3,5C000000,-0724,0834,12156,027.6,045.4,0.455,750.6,01.17,0.508
2014-12-10 02:02:00,2183E-3,5C000000,-0724,0835,12167,027.6,045.4,0.455,750.5,01.17,0.508
2014-12-10 02:03:00,2218E-3,5C000000,-0724,0834,11999,027.6,045.4,0.455,750.5,01.17,0.508
2014-12-10 02:04:00,2065E-3,5C000000,-0724,0834,12311,027.6,045.4,0.455,750.5,01.17,0.508
2014-12-10 02:05:00,2130E-3,5C000000,-0724,0834,11860,027.6,045.4,0.455,750.5,01.17,0.508
2014-12-10 02:06:00,2231E-3,5C000000,-0724,0834,12128,027.6,045.4,0.455,750.4,01.17,0.508
2014-12-10 02:07:00,2261E-3,5C000000,-0724,0833,12296,027.6,045.4,0.455,750.5,01.17,0.508
2014-12-10 02:08:00,2247E-3,5C000000,-0724,0834,12263,027.6,045.4,0.455,750.5,01.17,0.508
2014-12-10 02:09:00,2194E-3,5C000000,-0724,0833,12196,027.6,045.4,0.455,750.4,01.17,0.508
2014-12-10 02:10:00,2169E-3,5C000000,-0724,0834,12029,027.6,045.4,0.455,750.5,01.17,0.508
2014-12-10 02:11:00,2188E-3,5C000000,-0724,0834,12309,027.6,045.4,0.455,750.5,01.17,0.508
2014-12-10 02:12:00,2165E-3,5C000000,-0724,0834,12208,027.6,045.4,0.455,750.5,01.17,0.508
2014-12-10 02:13:00,2087E-3,5C000000,-0724,0833,11993,027.6,045.4,0.455,750.5,01.17,0.508
2014-12-10 02:14:00,2110E-3,5C000000,-0724,0834,12064,027.5,045.4,0.455,750.4,01.17,0.508
2014-12-10 02:15:00,2183E-3,5C000000,-0724,0835,11947,027.6,045.4,0.455,750.4,01.17,0.508
2014-12-10 02:16:00,2059E-3,5C000000,-0724,0834,12283,027.6,045.4,0.455,750.4,01.17,0.508
2014-12-10 02:17:00,2261E-3,5C000000,-0724,0834,12223,027.5,045.4,0.455,750.4,01.17,0.508
2014-12-10 02:18:00,2352E-3,5C000000,-0724,0834,12165,027.6,045.4,0.455,750.4,01.17,0.508
2014-12-10 02:19:00,2160E-3,5C000000,-0724,0833,11948,027.6,045.4,0.455,750.4,01.17,0.508
2014-12-10 02:20:00,2132E-3,5C000000,-0724,0834,12193,027.6,045.4,0.455,750.4,01.17,0.508
2014-12-10 02:21:00,2099E-3,5C000000,-0724,0833,12087,027.5,045.4,0.455,750.4,01.17,0.508
2014-12-10 02:22:00,2163E-3,5C000000,-0724,0834,12288,027.5,045.4,0.455,750.4,01.17,0.508
2014-12-10 02:23:00,2196E-3,5C000000,-0724,0834,12267,027.5,045.4,0.455,750.4,01.17,0.508
2014-12-10 02:24:00,2401E-3,5C000000,-0724,0835,12383,027.5,045.4,0.455,750.4,01.17,0.508
2014-12-10 02:25:00,2245E-3,5C000000,-0724,0833,11995,027.5,045.4,0.455,750.4,01.17,0.508
2014-12-10 02:26:00,2107E-3,5C000000,-0724,0834,12220,027.6,045.4,0.455,750.4,01.17,0.508
2014-12-10 02:27:00,2305E-3,5C000000,-0724,0835,12224,027.6,045.4,0.455,750.4,01.17,0.508
2014-12-10 02:28:00,2218E-3,5C000000,-0724,0833,12219,027.5,045.4,0.455,750.4,01.17,0.508
2014-12-10 02:29:00,2232E-3,5C000000,-0724,0834,12183,027.5,045.4,0.455,750.4,01.17,0.508
2014-12-10 02:30:00,2118E-3,5C000000,-0724,0833,12134,027.5,045.4,0.455,750.4,01.17,0.508
2014-12-10 02:31:00,2172E-3,5C000000,-0724,0833,12029,027.5,045.4,0.455,750.4,01.17,0.508
2014-12-10 02:32:00,2240E-3,5C000000,-0724,0833,12286,027.5,045.4,0.455,750.4,01.17,0.508
2014-12-10 02:33:00,2293E-3,5C000000,-0724,0834,12100,027.5,045.4,0.455,750.4,01.17,0.508
2014-12-10 02:34:00,2106E-3,5C000000,-0724,0835,12176,027.5,045.4,0.455,750.4,01.17,0.508
2014-12-10 02:35:00,2310E-3,5C000000,-0724,0833,11895,027.5,045.4,0.455,750.3,01.17,0.508
2014-12-10 02:36:00,2084E-3,5C000000,-0724,0835,12252,027.5,045.4,0.455,750.3,01.17,0.508
2014-12-10 02:37:00,2235E-3,5C000000,-0724,0834,11964,027.5,045.4,0.455,750.3,01.17,0.508
2014-12-10 02:38:00,2068E-3,5C000000,-0724,0833,12282,027.5,045.4,0.455,750.3,01.17,0.508
2014-12-10 02:39:00,2125E-3,5C000000,-0724,0834,12179,027.5,045.4,0.455,750.3,01.17,0.508
2014-12-10 02:40:00,2165E-3,5C000000,-0724,0833,12220,027.5,045.4,0.455,750.3,01.17,0.508
2014-12-10 02:41:00,2158E-3,5C000000,-0724,0834,12143,027.5,045.4,0.456,750.3,01.17,0.508
2014-12-10 02:42:00,2229E-3,5C000000,-0724,0834,12130,027.5,045.4,0.455,750.3,01.17,0.508
2014-12-10 02:43:00,2254E-3,5C000000,-0724,0834,12112,027.5,045.4,0.455,750.3,01.17,0.508
2014-12-10 02:44:00,2250E-3,5C000000,-0724,0833,12087,027.5,045.4,0.455,750.3,01.17,0.508
2014-12-10 02:45:00,2257E-3,5C000000,-0724,0834,12143,027.5,045.4,0.455,750.3,01.17,0.508
2014-12-10 02:46:00,2283E-3,5C000000,-0724,0834,12069,027.5,045.4,0.455,750.2,01.17,0.508
2014-12-10 02:47:00,2365E-3,5C000000,-0724,0835,12117,027.5,045.4,0.455,750.3,01.17,0.508
2014-12-10 02:48:00,2337E-3,5C000000,-0724,0834,12097,027.5,045.4,0.455,750.2,01.17,0.508
2014-12-10 02:49:00,2041E-3,5C000000,-0724,0833,12088,027.5,045.4,0.455,750.2,01.17,0.508
2014-12-10 02:50:00,2175E-3,5C000000,-0724,0833,12162,027.5,045.4,0.455,750.3,01.17,0.508
2014-12-10 02:51:00,2140E-3,5C000000,-0724,0833,12261,027.5,045.4,0.455,750.2,01.17,0.508
2014-12-10 02:52:00,2302E-3,5C000000,-0724,0833,12060,027.5,045.4,0.455,750.2,01.17,0.508
2014-12-10 02:53:00,2064E-3,5C000000,-0724,0833,12021,027.5,045.4,0.456,750.2,01.17,0.508
2014-12-10 02:54:00,2301E-3,5C000000,-0724,0835,12139,027.5,045.4,0.455,750.2,01.17,0.508
2014-12-10 02:55:00,2264E-3,5C000000,-0724,0835,12080,027.5,045.4,0.455,750.2,01.17,0.508
2014-12-10 02:56:00,2172E-3,5C000000,-0724,0834,12333,027.5,045.4,0.455,750.3,01.17,0.508
2014-12-10 02:57:00,2046E-3,5C000000,-0724,0834,12194,027.5,045.4,0.455,750.2,01.17,0.508
2014-12-10 02:58:00,2209E-3,5C000000,-0724,0834,12049,027.5,045.4,0.455,750.3,01.17,0.508
2014-12-10 02:59:00,2279E-3,5C000000,-0724,0834,12163,027.5,045.4,0.455,750.2,01.17,0.508
2014-12-10 03:00:00,2183E-3,5C000000,-0724,0835,12199,027.5,045.4,0.455,750.2,01.17,0.508
2014-12-10 03:01:00,2231E-3,5C000000,-0724,0835,12368,027.5,045.4,0.455,750.2,01.17,0.508
2014-12-10 03:02:00,2289E-3,5C000000,-0724,0834,12177,027.5,045.4,0.455,750.2,01.17,0.508
2014-12-10 03:03:00,2165E-3,5C000000,-0724,0833,12077,027.5,045.4,0.456,750.3,01.17,0.508
2014-12-10 03:04:00,2217E-3,5C000000,-0724,0835,12253,027.5,045.4,0.455,750.3,01.17,0.508
2014-12-10 03:05:00,2308E-3,5C000000,-0724,0834,12246,027.5,045.4,0.455,750.3,01.17,0.508
2014-12-10 03:06:00,2116E-3,5C000000,-0724,0835,12312,027.5,045.4,0.455,750.3,01.17,0.508
2014-12-10 03:07:00,2114E-3,5C000000,-0724,0835,12222,027.5,045.4,0.455,750.3,01.17,0.508
2014-12-10 03:08:00,2247E-3,5C000000,-0724,0834,12179,027.5,045.4,0.455,750.3,01.17,0.508
2014-12-10 03:09:00,2376E-3,5C000000,-0724,0833,12192,027.5,045.4,0.455,750.3,01.17,0.508
2014-12-10 03:10:00,2334E-3,5C000000,-0724,0835,12269,027.5,045.4,0.455,750.3,01.17,0.508
2014-12-10 03:11:00,2233E-3,5C000000,-0724,0834,12124,027.5,045.4,0.455,750.3,01.17,0.508
2014-12-10 03:12:00,2374E-3,5C000000,-0724,0834,12110,027.5,045.4,0.455,750.3,01.17,0.508
2014-12-10 03:13:00,2013E-3,5C000000,-0724,0833,12084,027.5,045.4,0.455,750.3,01.17,0.508
2014-12-10 03:14:00,2198E-3,5C000000,-0724,0834,12223,027.5,045.4,0.455,750.3,01.17,0.508
2014-12-10 03:15:00,2216E-3,5C000000,-0724,0835,12148,027.5,045.4,0.455,750.3,01.17,0.508
2014-12-10 03:16:00,2254E-3,5C000000,-0724,0834,12149,027.5,045.4,0.455,750.3,01.17,0.508
2014-12-10 03:17:00,2197E-3,5C000000,-0724,0833,12034,027.5,045.4,0.455,750.3,01.17,0.508
2014-12-10 03:18:00,2291E-3,5C000000,-0724,0834,11978,027.5,045.4,0.455,750.3,01.17,0.508
2014-12-10 03:19:00,2288E-3,5C000000,-0724,0834,12168,027.5,045.4,0.456,750.3,01.17,0.508
2014-12-10 03:20:00,2275E-3,5C000000,-0724,0833,11940,027.5,045.4,0.455,750.2,01.17,0.508
2014-12-10 03:21:00,2194E-3,5C000000,-0724,0834,12185,027.5,045.4,0.455,750.2,01.17,0.508
2014-12-10 03:22:00,2134E-3,5C000000,-0724,0833,12130,027.5,045.4,0.455,750.2,01.17,0.508
2014-12-10 03:23:00,2352E-3,5C000000,-0724,0834,12058,027.5,045.4,0.455,750.2,01.17,0.508
2014-12-10 03:24:00,2181E-3,5C000000,-0724,0835,12130,027.5,045.4,0.455,750.2,01.17,0.508
2014-12-10 03:25:00,2280E-3,5C000000,-0724,0834,12187,027.5,045.4,0.455,750.2,01.17,0.508
2014-12-10 03:26:00,2279E-3,5C000000,-0724,0834,12159,027.4,045.4,0.455,750.2,01.17,0.508
2014-12-10 03:27:00,2423E-3,5C000000,-0724,0834,12150,027.4,045.4,0.455,750.2,01.17,0.508
2014-12-10 03:28:00,2195E-3,5C000000,-0724,0835,12172,027.5,045.4,0.455,750.2,01.17,0.508
2014-12-10 03:29:00,2121E-3,5C000000,-0724,0834,12112,027.5,045.4,0.455,750.2,01.17,0.508
2014-12-10 03:30:00,2272E-3,5C000000,-0724,0833,12062,027.5,045.4,0.455,750.2,01.17,0.508
2014-12-10 03:31:00,2166E-3,5C000000,-0724,0834,12101,027.4,045.4,0.455,750.2,01.17,0.508
2014-12-10 03:32:00,2396E-3,5C000000,-0724,0834,12251,027.4,045.4,0.455,750.2,01.17,0.508
2014-12-10 03:33:00,2223E-3,5C000000,-0724,0834,12242,027.4,045.4,0.455,750.2,01.17,0.508
2014-12-10 03:34:00,2341E-3,5C000000,-0724,0834,12012,027.5,045.4,0.455,750.2,01.17,0.508
2014-12-10 03:35:00,2237E-3,5C000000,-0724,0834,12223,027.4,045.4,0.456,750.2,01.17,0.508
2014-12-10 03:36:00,2242E-3,5C000000,-0724,0833,11920,027.4,045.4,0.455,750.2,01.17,0.508
2014-12-10 03:37:00,2091E-3,5C000000,-0724,0834,12294,027.4,045.4,0.455,750.2,01.17,0.508
2014-12-10 03:38:00,2180E-3,5C000000,-0724,0835,12263,027.5,045.4,0.455,750.2,01.17,0.508
2014-12-10 03:39:00,2186E-3,5C000000,-0724,0834,12219,027.4,045.4,0.455,750.2,01.17,0.508
2014-12-10 03:40:00,2289E-3,5C000000,-0724,0834,12002,027.4,045.4,0.456,750.2,01.17,0.508
2014-12-10 03:41:00,2241E-3,5C000000,-0724,0835,12199,027.4,045.4,0.455,750.2,01.17,0.508
2014-12-10 03:42:00,2204E-3,5C000000,-0724,0833,12265,027.4,045.4,0.455,750.2,01.17,0.508
2014-12-10 03:43:00,2183E-3,5C000000,-0724,0834,12042,027.4,045.4,0.455,750.1,01.17,0.508
2014-12-10 03:44:00,2220E-3,5C000000,-0724,0833,12158,027.4,045.4,0.455,750.2,01.17,0.508
2014-12-10 03:45:00,2181E-3,5C000000,-0724,0835,12110,027.4,045.4,0.455,750.1,01.17,0.508
2014-12-10 03:46:00,2181E-3,5C000000,-0724,0835,12119,027.5,045.4,0.455,750.1,01.17,0.508
2014-12-10 03:47:00,2117E-3,5C000000,-0724,0834,12173,027.4,045.4,0.455,750.1,01.17,0.508
2014-12-10 03:48:00,2214E-3,5C000000,-0724,0834,12140,027.4,045.4,0.455,750.1,01.17,0.508
2014-12-10 03:49:00,2212E-3,5C000000,-0724,0834,12113,027.4,045.4,0.455,750.1,01.17,0.508
2014-12-10 03:50:00,2228E-3,5C000000,-0724,0834,12061,027.4,045.4,0.455,750.1,01.17,0.508
2014-12-10 03:51:00,2224E-3,5C000000,-0724,0834,11944,027.4,045.4,0.455,750.1,01.17,0.508
2014-12-10 03:52:00,2122E-3,5C000000,-0724,0834,12114,027.4,045.4,0.455,750.1,01.17,0.508
2014-12-10 03:53:00,2192E-3,5C000000,-0724,0834,12157,027.4,045.4,0.455,750.1,01.17,0.508
2014-12-10 03:54:00,2159E-3,5C000000,-0724,0834,12324,027.4,045.4,0.455,750.1,01.17,0.508
2014-12-10 03:55:00,2131E-3,5C000000,-0724,0834,12282,027.4,045.4,0.455,750.1,01.17,0.508
2014-12-10 03:56:00,2290E-3,5C000000,-0724,0835,12095,027.4,045.4,0.455,750.0,01.17,0.508
2014-12-10 03:57:00,2244E-3,5C000000,-0724,0833,12209,027.4,045.4,0.455,750.1,01.17,0.508
2014-12-10 03:58:00,2391E-3,5C000000,-0724,0834,12356,027.4,045.4,0.455,750.1,01.17,0.508
2014-12-10 03:59:00,2163E-3,5C000000,-0724,0834,12171,027.4,045.4,0.455,750.1,01.17,0.508
2014-12-10 04:00:00,2374E-3,5C000000,-0724,0834,12141,027.4,045.4,0.455,750.0,01.17,0.508
2014-12-10 04:01:00,2234E-3,5C000000,-0724,0833,12101,027.4,045.4,0.455,750.0,01.17,0.508
2014-12-10 04:02:00,2179E-3,5C000000,-0724,0834,12165,027.4,045.4,0.455,750.0,01.17,0.508
2014-12-10 04:03:00,2191E-3,5C000000,-0724,0835,12297,027.4,045.4,0.455,750.0,01.17,0.508
2014-12-10 04:04:00,2054E-3,5C000000,-0724,0834,11945,027.4,045.4,0.455,750.0,01.17,0.508
2014-12-10 04:05:00,2222E-3,5C000000,-0724,0833,12191,027.4,045.4,0.455,750.0,01.17,0.508
2014-12-10 04:06:00,2155E-3,5C000000,-0724,0833,12082,027.4,045.4,0.455,750.0,01.17,0.508
2014-12-10 04:07:00,2215E-3,5C000000,-0724,0833,12123,027.4,045.4,0.455,750.0,01.17,0.508
2014-12-10 04:08:00,2244E-3,5C000000,-0724,0835,12257,027.4,045.4,0.455,750.0,01.17,0.508
2014-12-10 04:09:00,2179E-3,5C000000,-0724,0834,12115,027.4,045.4,0.455,750.0,01.17,0.508
2014-12-10 04:10:00,2152E-3,5C000000,-0724,0834,12082,027.4,045.4,0.455,750.0,01.17,0.508
2014-12-10 04:11:00,2127E-3,5C000000,-0724,0834,12282,027.4,045.4,0.455,750.0,01.17,0.508
2014-12-10 04:12:00,2235E-3,5C000000,-0724,0833,12200,027.4,045.4,0.455,750.0,01.17,0.508
2014-12-10 04:13:00,2085E-3,5C000000,-0724,0834,12086,027.4,045.4,0.455,750.0,01.17,0.508
2014-12-10 04:14:00,2291E-3,5C000000,-0724,0834,12067,027.4,045.4,0.455,750.0,01.17,0.508
2014-12-10 04:15:00,2145E-3,5C000000,-0724,0833,12008,027.4,045.4,0.455,750.0,01.17,0.508
2014-12-10 04:16:00,2204E-3,5C000000,-0724,0835,12062,027.4,045.4,0.455,750.0,01.17,0.508
2014-12-10 04:17:00,2226E-3,5C000000,-0724,0834,12092,027.4,045.4,0.455,750.0,01.17,0.508
2014-12-10 04:18:00,2220E-3,5C000000,-0724,0834,12188,027.4,045.4,0.455,750.0,01.17,0.508
2014-12-10 04:19:00,2190E-3,5C000000,-0724,0834,12332,027.4,045.4,0.456,750.0,01.17,0.508
2014-12-10 04:20:00,2301E-3,5C000000,-0724,0833,12211,027.4,045.4,0.455,750.0,01.17,0.508